User: anonymous   Login
Location: Unspecified
(0.0000°N, 0.0000°E)
Time: 19:25:31
(UTC+02:00)
Language:

Cosmos 1125 Rocket - Orbit

View from above orbital plane
View from above orbital plane
View from above satellite
View from above satellite

Ground track
Ground track

The orbit data is extracted from the following two-line orbital elements,

1 11511U 79078B   16238.86502681  .00000030  00000-0  19120-4 0  9996
2 11511  74.0374 138.0868 0014609  94.8971 265.3851 14.36725539936203
Epoch (UTC): 25 August 2016 20:45:38
Eccentricity: 0.0014609
inclination: 74.0374°
perigee height: 759 km
apogee height: 780 km
right ascension of ascending node: 138.0868°
argument of perigee: 94.8971°
revolutions per day: 14.36725539
mean anomaly at epoch: 265.3851°
orbit number at epoch: 93620

The dashed part of the orbit path shows where the satellite is in the earth's shadow,  

DLR